Location: Unspecified
(0.0000°N, 0.0000°E)
Time: 01:22:52
(UTC+00:00)

Courier 1B Rocket - Visible Passes

Search period start: 26 May 2019 00:00
Search period end: 05 June 2019 00:00
Orbit: 920 x 1202 km, 28.3° (Epoch: 25 May)

Date Brightness Start Highest point End Pass type
(mag) Time Alt. Az. Time Alt. Az. Time Alt. Az.
26 May 7.1 20:00:18 10° NNW 20:04:52 17° NNE 20:06:28 16° NE visible
26 May 7.8 21:52:05 10° NW 21:52:49 13° NW 21:52:49 13° NW visible
27 May 7.4 19:00:23 10° N 19:03:07 12° NNE 19:05:50 10° NE visible
27 May 6.8 20:51:09 10° NW 20:55:28 28° N 20:55:28 28° N visible
28 May 6.7 19:50:25 10° NNW 19:56:27 24° NNE 19:58:08 22° NE visible
28 May 7.5 21:42:59 10° NW 21:44:30 17° NW 21:44:30 17° NW visible
29 May 7.2 18:49:58 10° NNW 18:54:51 17° NNE 18:59:39 10° ENE visible
29 May 6.2 20:41:49 10° NW 20:47:12 41° NNW 20:47:12 41° NNW visible
30 May 6.2 19:40:53 10° NW 19:47:53 36° NNE 19:49:55 31° ENE visible
30 May 7.4 21:34:09 10° WNW 21:36:17 20° WNW 21:36:17 20° WNW visible
31 May 6.8 18:40:11 10° NNW 18:46:24 25° NNE 18:52:31 10° ENE visible
31 May 5.7 20:32:44 10° NW 20:39:03 60° NW 20:39:03 60° NW visible
01 Jun 5.7 19:31:36 10° NW 19:39:12 53° NNE 19:41:49 38° E visible
01 Jun 7.2 21:25:38 10° WNW 21:28:12 22° W 21:28:12 22° W visible
02 Jun 7.2 05:13:14 10° SSE 05:14:07 10° SSE 05:15:01 10° SSE visible
02 Jun 6.3 18:30:42 10° NW 18:37:47 37° NNE 18:44:38 11° E visible
02 Jun 5.5 20:23:57 10° WNW 20:31:00 68° WSW 20:31:00 68° WSW visible
03 Jun 5.4 19:22:34 10° NW 19:30:26 79° NNE 19:33:49 38° ESE visible
03 Jun 7.3 21:17:30 10° W 21:20:12 21° WSW 21:20:12 21° WSW visible
04 Jun 6.9 05:02:01 10° SSW 05:05:51 16° SSE 05:09:38 10° ESE visible
04 Jun 5.8 18:21:28 10° NW 18:29:04 55° NNE 18:36:39 10° ESE visible
04 Jun 5.8 20:15:28 10° WNW 20:22:59 49° SSW 20:23:02 49° SSW visible
